Regional Weather Roundup
Issued by NWS Bismarck, ND

Home | Current Version | Previous Version | Text Only | Print | Product List | Glossary On
Versions: 1 2 3 4 5 6 7 8 9 10 11 12 13 14 15 16 17 18 19 20 21 22 23 24 25 26 27 28 29 30 31 32 33 34 35 36 37 38 39 40 41 42 43 44 45 46 47 48 49 50
000
ASUS43 KBIS 291210
RWRBIS

NWR BROADCAST TEXT
NATIONAL WEATHER SERVICE BISMARCK ND
700 AM CDT WED JUL 29 2015

NOTE: "FAIR" INDICATES FEW OR NO CLOUDS BELOW 12,000 FEET WITH NO
SIGNIFICANT WEATHER AND/OR OBSTRUCTIONS TO VISIBILITY.


CITY           SKY/WX    TMP DP  RH WIND       PRES   REMARKS
WILLISTON      MOCLDY    59  48  67 W18       29.98R
MINOT          CLOUDY    61  51  70 W17       29.85R
MINOT AFB      PTCLDY    62  56  81 W14G22    29.84R
BISMARCK       CLEAR     61  47  59 W21G29    29.97R
DICKINSON      PTCLDY    56  43  61 W14       30.05R
GARRISON         N/A     59  52  77 W13       29.92R
HETTINGER ARPT CLEAR     52  41  66 W10       30.12R
JAMESTOWN      CLEAR     63  50  62 W22G32    29.86R
BEACH          PTSUNNY   55  43  62 W14       30.11R
CROSBY         FAIR      55  54  94 W14G20    29.93R
HARVEY         FAIR      59  54  82 W18G24    29.84R
HAZEN          FAIR      59  46  63 W14       29.97R
LINTON         FAIR      59  48  67 W15G21    30.00R
MANDAN         FAIR      57  46  67 W17       29.99R
OAKES            N/A     63  50  63 SW15G25   29.92R
STANLEY        FAIR      55  54  94 MISG      29.94R
$$

CITY           SKY/WX    TMP DP  RH WIND       PRES   REMARKS
GRAND FORKS    CLOUDY    65  55  70 W22G37    29.65R
GRAND FORKS AF CLOUDY    65  55  70 NW22G39   29.66R
DEVILS LAKE    MOCLDY    64  48  55 W25G37    29.72R
FARGO          CLOUDY    65  51  60 W23G29    29.77R
CAVALIER       CLOUDY    63  55  77 W18G30    29.58R
GRAFTON        CLOUDY    64  57  77 W25G33    29.61R
GWINNER        FAIR      63  48  59 W16G23    29.89S
LANGDON        PTSUNNY   59  57  94 W22G33    29.65R FOG
ROLLA          FAIR      59  54  82 W20G32    29.72R
WALHALLA       FAIR      63  59  88 MISG      29.58R
$$

CITY           SKY/WX    TMP DP  RH WIND       PRES   REMARKS
ABERDEEN       CLEAR     58  48  69 SW12      29.99R
MOBRIDGE       CLEAR     63  45  51 NW13G22   30.03R
BUFFALO          N/A     51  39  63 W12       30.09R
RAPID CITY     CLEAR     52  41  66 W5        30.24R
GLASGOW        PTCLDY    53  46  77 CALM      30.08R
SIDNEY         MOCLDY    61  46  59 W15G21    30.03R
WOLF POINT     MOCLDY    54  49  83 W9        30.06R
GLENDIVE       MOCLDY    57  45  62 W14       30.10R
MILES CITY     CLEAR     51  43  74 W8        30.15R
BAKER          PTCLDY    51  39  63 W8        30.15R
$$

CITY           SKY/WX    TMP DP  RH WIND       PRES   REMARKS
BILLINGS       PTCLDY    55  36  48 SW17      30.25R
GREAT FALLS    CLEAR     51  40  65 SW12      30.21R
REGINA         MOCLDY    55  52  88 W8        29.90R
ESTEVAN        PTCLDY    57  52  82 W16G23    29.89R
$$



USA.gov is the U.S. government's official web portal to all federal, state and local government web resources and services.